Terug naar catalogus

COSMOS 2499 DEB

ActiefPO
NORAD 60616·DEBRIS·🇷🇺 Russia

Gelanceerd May 23, 2014 vanaf Plesetsk Cosmodrome

Loading…

Volgende Passages (komende 24 uur)

TLE

VerouderendSource: Space-Track

Epoch: Sep 3, 2026, 07:28 UTC

1 60616U 14028CC  26246.31150221 -.00002617  00000-0 -62858-2 0  9998
2 60616  81.9790 104.7593 0216614  37.0550 324.5305 13.14662813158184

Volg COSMOS 2499 DEB in realtime met AllMySat

Download on the App Store